Weather in Bogorodskoye

Russia / Republic of Tatarstan     55°44′27″N   49°23′01″E
temp.,
°C
wind,
m/s
gust,
m/s
humid.,
%
clouds,
%
prec.,
mm/h
press.,
hPa
HPBL,
m
6 may, thu
thu600:00+4wsw4108639 0.0 1011259
03:00+5wsw3879100 0.0 1013273
06:00+5sw2379100 0.1 101486
09:00+10wsw4673100 0.1 1015626
12:00+14sw566713 0.0 1016890
15:00+17sw5855100 0.3 10151973
18:00+14s3871100 0.0 1015200
21:00+11ssw347895 0.0 101656
7 may, fri
fri700:00+9s3108498 0.0 1016186
03:00+8s4118487 0.0 1016196
06:00+10s51274100 0.0 1016349
09:00+14s71360100 0.0 1016702
12:00+17ssw81247100 0.0 10162078
15:00+17ssw71152100 0.1 10152039
18:00+13w477598 0.9 1016279
21:00+10wnw2491100 2.8 1018124
8 may, sat
sat800:00+10ene0090100 0.8 101914
03:00+9n1192100 1.1 101926
06:00+10e2389100 0.1 1019161
09:00+13ese3475100 0.1 1019521
12:00+18sse57535 0.3 10171414
15:00+19ssw694949 0.3 10161715
18:00+16sse476585 0.0 1015193
21:00+14se4968100 0.0 1015178
9 may, sun
sun900:00+14sse4116970 0.0 1015289
03:00+11sse41275100 0.0 1014237
06:00+13sse51371100 0.0 1014359
09:00+16sse61265100 0.0 1014680
12:00+19sse71156100 0.0 10131634
15:00+17s51161100 0.0 1014961
18:00+15ese4872100 0.0 1014155
21:00+14se41273100 0.1 1014241
10 may, mon
mon1000:00+14sse1171100 0.1 101513
03:00+12nnw3487100 0.1 101797
06:00+12nne3589100 0.1 1018112
09:00+17nne4568100 0.1 1019519
12:00+20ene4453100 0.0 10201047
15:00+22nne234684 0.1 10201604
18:00+14n71182100 0.6 1023350
21:00+11nne6118791 0.6 1024314